Location: Barczków
(50.1349°N, 20.5491°E)
Time: 05:45:56
(UTC+00:00)

Daily predictions for brighter satellites

Satellite Brightness Start Highest point End
(mag) Time Altitude Azimuth Time Altitude Azimuth Time Altitude Azimuth
ACS3 Solar Sail 4.3 00:38:50 10° NE 00:39:56 14° NE 00:39:56 14° NE
CENTAUR R/B 4.0 01:52:52 37° N 01:54:27 40° NNE 02:02:46 10° E
Cosmos 2237 Rocket 3.8 01:55:42 31° E 01:55:42 31° E 01:59:55 10° NE
Cosmos 2369 Rocket 4.3 01:59:43 19° NNE 02:01:08 20° NE 02:05:19 10° E
Cosmos 2360 Rocket 4.4 02:10:53 16° N 02:10:53 16° N 02:12:08 10° NNE
ADEOS Rocket 3.6 02:03:19 10° NNE 02:08:51 62° NNE 02:08:51 62° NNE
Cosmos 2322 Rocket 4.4 02:15:59 15° N 02:15:59 15° N 02:17:16 10° NNE
SJ 16-02 3.8 02:15:02 20° E 02:15:02 20° E 02:17:02 10° ESE
Cosmos 2333 Rocket 4.4 02:17:29 15° N 02:17:29 15° N 02:18:49 10° NNE
USA 234 3.3 02:15:57 10° ESE 02:22:27 70° NNE 02:22:27 70° NNE
ACS3 Solar Sail 2.8 02:20:46 10° N 02:24:02 35° N 02:24:02 35° N
Gbstr 26 Del rocket 4.0 02:39:58 54° ENE 02:39:58 54° ENE 02:44:29 10° ENE
Meteor 1-24 Rocket 4.0 02:41:06 61° NE 02:41:06 61° NE 02:45:38 10° NNE
Cosmos 1656 Rocket 4.5 02:38:46 40° NNE 02:40:14 49° NE 02:45:43 10° SE
Cosmos 2219 Rocket 4.0 02:44:42 20° N 02:44:42 20° N 02:46:57 10° NNE
Cosmos 1725 Rocket 3.9 02:38:49 10° N 02:45:11 85° E 02:51:30 10° S
Cosmos 2233 Rocket 4.3 02:41:12 10° N 02:47:29 64° ENE 02:53:41 10° SSE
Lacrosse 5 rocket 3.7 02:49:50 16° ENE 02:49:50 16° ENE 02:50:47 10° ENE
NOSS 3-1 (C) 3.9 02:50:25 42° N 02:50:25 42° N 02:55:06 10° NE
Meteor 2-21 Rocket 4.3 02:52:23 57° S 02:53:45 89° E 02:59:51 10° N
Cosmos 2251 Rocket 3.6 02:56:26 71° SSE 02:56:26 71° SSE 03:01:11 10° SSE
SL-16 R/B 4.0 02:53:27 10° SSE 02:58:18 30° ESE 03:03:10 10° NE
Cosmos 1420 Rocket 4.4 02:57:42 40° S 02:59:26 63° ESE 03:04:42 10° NNE
H-2A R/B 4.1 02:56:23 10° N 02:57:08 14° N 02:57:08 14° N
PAYLOAD A 4.1 02:57:53 10° NNE 03:03:18 78° ESE 03:05:40 34° S
NOSS 0 Rocket 3.8 03:04:17 66° WNW 03:04:19 66° NW 03:10:30 10° NNE
SL-08 R/B 4.3 02:59:57 10° N 03:06:07 85° W 03:12:20 10° S
Cosmos 1802 Rocket 3.9 03:00:19 10° NNW 03:06:36 64° W 03:12:44 10° S
SL-08 RB Rocket 3.9 03:02:24 10° NNE 03:06:14 62° NNE 03:06:14 62° NNE
Cosmos 1812 4.4 03:14:35 23° E 03:14:35 23° E 03:16:21 10° SE
COSMOS 2428 3.5 03:21:07 33° NNW 03:21:07 33° NNW 03:25:25 10° NNE
Meteor 2-5 Rocket 3.7 03:19:35 55° WSW 03:20:28 61° WNW 03:26:13 10° N
CZ-2C R/B 2.4 03:16:19 10° N 03:21:21 65° WNW 03:21:33 64° W
Cosmos 1980 3.6 03:22:37 57° W 03:23:14 61° WNW 03:28:53 10° NNE
Cosmos 2123 Rocket 4.0 03:24:38 41° SW 03:26:26 55° WNW 03:32:30 10° N
Cosmos 1939 Rocket 2.8 03:22:49 10° NNE 03:26:13 67° NNE 03:26:13 67° NNE
USA 267 3.3 03:21:00 10° ENE 03:27:34 76° SE 03:31:27 27° SW
Cosmos 2016 Rocket 4.1 03:23:58 10° NNW 03:30:07 52° W 03:36:12 10° SSW
Cosmos 2278 Rocket 4.3 03:37:43 10° SSW 03:37:43 10° SSW 03:37:51 10° SSW
Cosmos 1190 Rocket 4.1 03:34:26 50° W 03:34:59 53° WSW 03:40:03 10° S
Cosmos 676 Rocket 3.8 03:34:41 29° NNW 03:37:25 79° WSW 03:42:36 10° SSE
NOSS 3-1 (A) 3.3 03:37:27 45° WNW 03:38:20 50° NW 03:44:17 10° NE
Cosmos 2237 Rocket 2.3 03:37:34 43° W 03:38:48 51° NW 03:44:20 10° NNE
ARGOS 3.4 03:34:47 10° N 03:39:54 43° WNW 03:40:21 42° W
Cosmos 2297 3.9 03:36:01 17° NNW 03:40:29 69° ENE 03:46:06 10° SE
ATLAS 3B R/B 3.7 03:37:36 10° SSW 03:44:52 55° ESE 03:52:31 10° NE
Okean 2 Rocket 4.5 03:41:37 10° N 03:45:43 39° ENE 03:49:49 10° SE
Cosmos 2369 Rocket 2.3 03:41:31 16° NNW 03:46:06 77° ENE 03:51:49 10° SE
CENTAUR R/B 3.3 03:40:00 20° NW 03:46:12 84° NE 03:55:37 10° SE
Aureole 3 4.0 03:40:45 10° S 03:46:37 90° W 03:51:28 10° N
Cosmos 2056 Rocket 3.5 03:42:49 10° SSW 03:48:13 86° WNW 03:53:39 10° NNE
Cosmos 1954 Rocket 4.1 03:47:44 36° WNW 03:49:19 48° WSW 03:54:15 10° S
SJ 16-02 1.5 03:51:39 45° W 03:51:55 45° WSW 03:55:58 10° S
Orbus 7S? 3.2 03:51:03 36° WSW 03:52:44 78° NNW 03:55:44 10° NE
Cosmos 2360 Rocket 4.3 03:52:38 11° NNW 03:53:07 11° NNW 03:54:45 10° N
SKYMED 2 3.4 03:49:13 10° S 03:53:33 76° WSW 03:57:56 10° NNW
ADEOS Rocket 4.2 03:49:40 10° N 03:55:04 26° NW 03:55:46 26° WNW
FengYun 1-2 T 4.1 03:51:20 10° NNE 03:56:54 72° WNW 04:02:29 10° SSW
IRS-1D 3.3 03:52:45 10° NNE 03:57:44 88° WNW 04:02:39 10° SSW
Cosmos 2322 Rocket 4.3 03:57:46 10° NNW 03:58:40 10° NNW 03:59:37 10° N
COSMO-SKYMED 1 2.3 03:55:36 10° SSE 03:59:43 89° WSW 04:03:52 10° NNW
Cosmos 2333 Rocket 4.4 04:00:12 10° NNW 04:00:50 10° NNW 04:01:28 10° N
USA 234 3.5 03:59:15 10° SE 04:05:38 53° SW 04:09:48 22° WNW
Cosmos 1371 Rocket 4.0 04:02:26 10° SW 04:07:42 65° WNW 04:13:02 10° NNE
Cosmos 1025 Rocket 4.3 04:04:15 10° SSE 04:08:22 44° E 04:12:32 10° NNE
ACS3 Solar Sail 3.2 04:05:01 10° NNW 04:08:08 18° NW 04:08:08 18° NW
Cosmos 968 Rocket 3.4 04:05:07 10° NNW 04:10:23 82° WSW 04:15:38 10° SSE
Cosmos 1741 Rocket 4.1 04:07:42 10° NNW 04:13:04 82° ENE 04:18:22 10° SSE
Cosmos 1674 Rocket 3.9 04:08:45 10° S 04:13:08 68° E 04:17:32 10° NNE
Cosmos 371 Rocket 3.9 04:11:29 25° WNW 04:13:32 36° WSW 04:17:55 10° S
Meteor 1-21 Rocket 4.2 04:08:43 10° SSW 04:14:27 85° WNW 04:20:07 10° NNE
USA 306 2.3 04:15:46 35° W 04:17:02 69° NNW 04:20:54 10° ENE
CZ-4 R/B 3.8 04:13:32 10° N 04:18:21 64° WNW 04:23:03 10° SSW
CZ-3 R/B 4.1 04:12:24 10° SW 04:19:02 16° SSW 04:23:06 10° SSE
Cosmos 2221 Rocket 4.4 04:18:32 10° S 04:22:57 57° E 04:27:24 10° NNE
Cosmos 1400 Rocket 2.5 04:19:22 10° NNW 04:23:03 63° W 04:26:39 10° S
NOAA 12 4.1 04:17:57 10° N 04:23:15 67° WNW 04:28:31 10° SSW
Cosmos 1656 Rocket 4.3 04:20:09 18° NW 04:23:36 34° WSW 04:28:38 10° S
Cosmos 1110 Rocket 4.2 04:18:51 10° SSW 04:24:07 77° ESE 04:29:27 10° NNE
Cosmos 1484 Rocket 2.9 04:21:39 10° NNE 04:25:12 68° ESE 04:28:42 10° S
Lacrosse 5 rocket 1.0 04:23:30 24° NW 04:25:22 65° NNE 04:28:39 10° ESE
Gbstr 26 Del rocket 3.7 04:22:01 21° WNW 04:25:33 81° NNE 04:31:55 10° E
Lacrosse 4 Rocket 2.6 04:22:18 10° NNW 04:26:01 35° NE 04:29:39 10° ESE
Aureole 3 Rocket 4.1 04:22:52 10° NNW 04:27:43 48° W 04:34:21 10° SSW
Cosmos 2219 Rocket 4.2 04:26:44 10° NNW 04:28:05 11° NNW 04:29:26 10° N
Cosmos 2151 Rocket 3.5 04:23:44 10° NNW 04:28:13 66° W 04:32:37 10° S
Cosmos 1455 Rocket 4.3 04:24:37 10° N 04:28:47 43° ENE 04:32:55 10° SSE
Cosmos 1869 4.4 04:31:06 20° W 04:31:06 20° W 04:33:17 10° SW
In-Cosmos 22 Rocket 4.4 04:26:09 10° SSW 04:31:51 56° WNW 04:37:34 10° N
SWARM A 4.4 04:30:35 10° SSW 04:33:48 49° W 04:37:03 10° N
Sich 1 Rocket 3.6 04:30:50 10° NNW 04:35:23 84° W 04:39:53 10° S
Helios 1A Rocket 3.5 04:34:30 10° SSW 04:37:19 24° W 04:39:00 17° NW
Cosmos 1378 Rocket 3.7 04:36:47 10° SSW 04:40:55 47° WNW 04:45:05 10° N
Cosmos 1624 Rocket 4.5 04:36:57 10° WSW 04:41:43 37° NW 04:46:31 10° NNE
SL-16 R/B 2.3 04:36:31 10° SW 04:42:06 55° NW 04:47:43 10° NNE
Cosmos 332 Rocket 3.8 04:37:40 10° NNW 04:42:25 63° WSW 04:47:07 10° S
NOSS 2-2 (C) 3.6 04:39:27 15° NW 04:42:39 70° SW 04:47:51 10° SSE
Cosmos 2242 Rocket 4.3 04:39:14 10° SW 04:43:09 31° WNW 04:47:08 10° N
Cosmos 1464 Rocket 4.0 04:38:36 10° NNW 04:44:40 62° W 04:50:40 10° S
Okean 1 Rocket 3.0 04:41:47 10° NNW 04:46:05 66° W 04:50:20 10° S
Cosmos 1812 3.8 04:46:27 15° W 04:46:27 15° W 04:47:55 10° SW
NOSS 3-2 (C) 4.4 04:47:02 10° NW 04:53:58 62° NE 05:02:24 10° ESE
Cosmos 2034 Rocket 4.0 04:49:49 10° NNW 04:56:10 75° W 05:02:31 10° S
Cosmos 1452 Rocket 3.5 04:52:04 10° SSW 04:57:17 80° WNW 05:02:34 10° NNE
Meteor 2-1 Rocket 4.3 04:51:27 10° NNW 04:57:20 67° W 05:03:03 10° S
CZ-2C R/B 4.2 04:56:18 10° NNW 04:58:29 13° NW 05:00:41 10° WNW
ARIANE 5 R/B 3.6 04:53:45 10° NNE 04:58:41 49° E 05:03:40 10° S
Cosmos 1850 Rocket 4.4 04:55:58 10° NW 05:00:47 40° WSW 05:05:35 10° S
IGS 5A 3.3 05:00:55 10° N 05:04:55 65° WNW 05:08:52 10° SSW
NOSS 2-2 (D) 3.5 05:01:12 10° NW 05:04:56 79° SW 05:10:04 10° SE
Cosmos 2084 3.3 05:04:16 10° NW 05:08:19 67° SW 05:12:17 10° SSE
Cosmos 1980 Rocket 4.4 05:05:36 10° N 05:08:58 16° NNE 05:12:19 10° ENE
CORIOLIS 4.4 05:03:44 10° NNE 05:09:06 76° ESE 05:14:27 10° S
USA 267 3.5 05:04:06 10° ENE 05:10:28 58° NNW 05:16:51 10° W
Cosmos 1331 Rocket 4.2 05:06:34 10° SW 05:11:41 51° WNW 05:16:47 10° NNE
Meteor 1-27 4.4 05:07:12 10° NNW 05:13:03 86° E 05:18:48 10° SSE
USA 229 DEB 3.6 05:08:07 10° WSW 05:14:06 62° NW 05:20:56 10° NE
USA 229 3.6 05:08:19 10° WSW 05:14:18 62° NW 05:21:09 10° NE
Cosmos 1356 Rocket 3.8 05:10:16 10° N 05:14:20 65° ENE 05:18:23 10° SSE
CZ-2D R/B 2.9 05:11:29 10° NNE 05:14:39 79° ESE 05:17:49 10° S
NOSS 3-2 (A) 4.2 05:07:36 10° NW 05:14:49 70° SW 05:23:32 10° SSE
Cosmos 1441 Rocket 2.8 05:12:24 10° SSW 05:15:45 79° WNW 05:19:06 10° N
SMAP 3.1 05:17:06 10° NNE 05:21:47 81° WNW 05:26:27 10° SSW
CBERS-1 4.2 05:17:14 10° N 05:22:13 54° WNW 05:27:11 10° SW
